Overview Statistics Trail Chart Weather Telemetry Raw packets
 

This is the latest recevied weather packets stored in our database for station/object KE5QKR. If no packets are shown the sender has not sent any weather packets the latest 10 day(s).

<< 30 31 32 33 34 35 36 >>
Time Temp. Humidity Pressure Rain* Wind** Luminosity Snow
1777774809 15° C 65% 1016.7 hPa 0 mm - 0 W/m² -
1777774506 15.56° C 64% 1016.8 hPa 0 mm - 0 W/m² -
1777774223 15.56° C 62% 1016.5 hPa 0 mm - 0 W/m² -
1777773901 16.11° C 62% 1016.7 hPa 0 mm - 0 W/m² -
1777773597 16.11° C 61% 1016.6 hPa 0 mm - 0 W/m² -
1777773294 16.11° C 61% 1016.4 hPa 0 mm - 0 W/m² -
1777772990 16.11° C 60% 1016.4 hPa 0 mm - 0 W/m² -
1777772687 16.67° C 59% 1016.4 hPa 0 mm - 0 W/m² -
1777772385 16.67° C 58% 1016.1 hPa 0 mm - 0 W/m² -
1777772082 16.67° C 57% 1016.1 hPa 0 mm - 0 W/m² -
1777771779 16.67° C 58% 1016.2 hPa 0 mm - 0 W/m² -
1777771477 17.22° C 57% 1016 hPa 0 mm - 0 W/m² -
1777771173 17.22° C 57% 1016 hPa 0 mm - 0 W/m² -
1777770870 17.22° C 56% 1015.9 hPa 0 mm - 0 W/m² -
1777770567 17.22° C 56% 1015.8 hPa 0 mm - 0 W/m² -
1777770264 17.78° C 55% 1015.8 hPa 0 mm - 0 W/m² -
1777769961 17.78° C 55% 1015.6 hPa 0 mm - 0 W/m² -
1777769658 17.78° C 54% 1015.4 hPa 0 mm - 0 W/m² -
1777769355 17.78° C 54% 1015.4 hPa 0 mm - 0 W/m² -
1777769052 18.33° C 53% 1015.4 hPa 0 mm - 1 W/m² -
1777768749 18.89° C 52% 1015.2 hPa 0 mm - 2 W/m² -
1777768446 18.89° C 51% 1015 hPa 0 mm - 4 W/m² -
1777768143 18.89° C 51% 1015 hPa 0 mm - 6 W/m² -
1777767840 19.44° C 49% 1015 hPa 0 mm - 8 W/m² -
1777767536 18.89° C 51% 1014.9 hPa 0 mm - 11 W/m² -

* Rain latest hour (hover to see other rain measurements)
** Current wind speed in m/s (hover to see current wind gust speed)